Location: New Paltz
(41.7500°N, 74.0833°W)
Time: 16:39:17
(UTC-04:00)

Daily predictions for brighter satellites

Satellite Brightness Start Highest point End
(mag) Time Altitude Azimuth Time Altitude Azimuth Time Altitude Azimuth
Meteor 2-4 Rocket 4.3 20:42:01 10° SSE 20:47:14 41° E 20:52:38 10° NNE
NOSS 2-2 (E) 3.9 20:44:07 10° SW 20:48:08 70° NW 20:52:51 10° NNE
Helios 1B rocket 2.5 20:47:28 10° NNE 20:51:33 57° E 20:55:37 10° S
PSLV R/B 3.1 20:54:07 10° W 20:57:12 66° S 21:00:19 10° ESE
USA 186 2.8 20:54:20 10° S 20:57:25 44° W 21:00:25 10° NNW
Cosmos 405 3.8 20:59:48 10° N 21:03:07 34° ENE 21:06:22 10° SE
Cosmos 1943 Rocket 4.0 20:58:49 10° NW 21:03:33 29° WSW 21:08:15 10° SSW
Cosmos 2074 Rocket 4.0 20:58:20 10° N 21:04:37 77° E 21:10:53 10° SSE
Cosmos 1025 Rocket 3.7 21:00:47 10° SSE 21:04:38 34° E 21:08:30 10° NNE
Spot 1 4.2 21:02:27 10° SSE 21:06:58 85° WSW 21:11:16 10° NNW
GENESIS II 4.2 21:03:50 10° NW 21:07:49 88° SW 21:11:39 10° SSE
Cosmos 2184 Rocket 4.0 21:01:31 10° N 21:07:54 78° E 21:14:11 10° S
Aureole 1 Rocket 2.1 21:06:11 10° SSW 21:09:27 70° ESE 21:12:26 10° NNE
Cosmos 405 Rocket 3.2 21:12:15 10° SSW 21:15:57 61° W 21:19:47 10° N
Cosmos 1371 Rocket 4.3 21:13:35 10° N 21:18:49 54° ENE 21:23:23 13° SE
DEBRIS 3.7 21:15:32 10° WSW 21:18:52 89° NNW 21:30:10 10° ENE
ARGOS 4.0 21:17:01 12° SE 21:21:29 36° ENE 21:26:24 10° N
Okean 2 3.9 21:18:13 10° SSE 21:22:02 40° E 21:25:52 10° NNE
Meteor 1-23 Rocket 4.2 21:18:51 10° S 21:24:20 65° E 21:29:55 10° NNE
Cosmos 1441 Rocket 3.1 21:21:03 10° S 21:24:46 86° ESE 21:28:32 10° N
Lacrosse 5 rocket 4.5 21:23:11 10° NNW 21:24:54 12° N 21:26:37 10° NNE
Tiangong 2 1.0 21:21:51 10° WSW 21:25:03 84° SSE 21:28:14 10° E
ERS-1 Rocket 3.0 21:21:27 11° SSE 21:26:20 67° ENE 21:31:20 10° N
Resurs 01 Rocket 4.2 21:24:53 10° SW 21:28:00 19° W 21:31:09 10° NW
NOAA 11 4.4 21:23:37 12° SSE 21:28:31 57° ENE 21:33:50 10° N
CENTAUR R/B 3.8 21:21:06 10° NW 21:28:47 52° WSW 21:36:52 10° S
Terra 3.9 21:29:24 10° E 21:31:50 14° ENE 21:34:17 10° NNE
SPOT 5 3.3 21:30:14 16° SE 21:33:11 37° ENE 21:37:14 10° N
Meteor 1-29 4.0 21:31:02 10° N 21:34:18 46° WNW 21:37:31 10° SSW
Nadezhda 1 Rocket 4.1 21:30:46 10° S 21:37:08 84° W 21:43:35 10° N
H-2A R/B 4.2 21:38:05 11° E 21:40:25 15° ENE 21:43:01 10° NNE
MOS 1-B Rocket 4.1 21:35:57 14° SSE 21:40:55 70° ENE 21:47:24 10° N
MetOp-B 4.2 21:36:55 15° SSE 21:41:20 67° ENE 21:46:41 10° N
Meteor 1-15 Rocket 4.2 21:36:56 10° N 21:42:33 79° E 21:47:18 15° SSE
COSMOS 2406 4.5 21:37:34 10° SW 21:43:02 45° WNW 21:48:30 10° NNE
Cosmos 2278 4.1 21:40:00 10° NNW 21:45:34 50° ENE 21:49:20 20° SE
Cosmos 2082 Rocket 3.0 21:41:51 16° SSE 21:45:34 31° ESE 21:50:29 10° NE
Cosmos 2154 Rocket 4.1 21:45:37 10° N 21:52:01 89° W 21:57:43 13° S
ISS -2.1 21:56:45 10° W 21:59:49 35° NNW 22:02:54 10° NE
SL-24 DEB 4.3 21:57:20 23° SSE 22:00:05 62° E 22:04:41 10° N
ASTEX 1 4.2 21:55:43 10° SSW 22:00:28 50° W 22:05:15 10° NNW
Cosmos 1624 Rocket 4.1 21:56:44 10° NNW 22:02:01 78° WSW 22:05:36 21° S
H-2A R/B 2.3 21:59:49 24° SE 22:02:31 50° ENE 22:07:24 10° N
OAO 2 Rocket 4.0 21:58:56 10° WSW 22:03:24 34° S 22:05:08 27° SSE
Cosmos 2369 3.8 21:59:40 10° NNW 22:05:25 72° ENE 22:08:44 26° SE
Cosmos 1697 Rocket 3.5 22:01:00 10° N 22:06:12 37° ENE 22:09:12 22° ESE
TELKOM 3 4.1 22:04:06 10° NW 22:06:26 45° NNE 22:07:27 30° E
Cosmos 2228 3.2 22:03:28 10° N 22:07:42 55° E 22:09:27 32° SE
Cosmos 967 Rocket 4.4 22:02:19 10° SSW 22:08:35 89° WNW 22:14:55 10° NNE
Cosmos 921 Rocket 3.0 22:05:57 10° NNW 22:10:27 84° ENE 22:12:34 31° SSE
Cosmos 1656 3.8 22:08:30 10° NNW 22:13:54 59° ENE 22:16:38 29° SE
Meteor 1-4 Rocket 3.3 22:10:36 10° N 22:13:55 34° ENE 22:14:27 32° E
SL-08 RB Rocket 3.6 22:12:25 29° SSE 22:14:43 87° ENE 22:19:13 10° NNW
Cosmos 1892 Rocket 3.7 22:15:23 17° SSW 22:18:46 73° W 22:23:12 10° N
Cosmos 2056 Rocket 3.9 22:16:15 10° NNW 22:21:16 55° WSW 22:24:17 23° S
Cosmos 1833 Rocket 2.7 22:19:02 21° S 22:22:46 59° ESE 22:28:18 10° NNE
Cosmos 1437 Rocket 4.0 22:19:26 10° NNW 22:22:59 37° W 22:25:16 19° SSW
DMSP B5D2-2 4.3 22:18:23 10° NNE 22:23:32 51° E 22:25:40 32° SSE
Cosmos 1602 Rocket 4.0 22:23:56 37° ESE 22:24:44 40° E 22:28:48 10° NNE
Cosmos 2341 Rocket 4.3 22:18:29 10° NNW 22:24:48 69° W 22:29:28 19° S
Timation 2 Rocket 4.4 22:23:59 28° SSE 22:26:40 42° ESE 22:32:27 10° NE
Cosmos 1271 Rocket 4.3 22:26:01 10° NNE 22:29:07 22° ENE 22:29:26 22° E
deb Chang Zheng 4 4.1 22:30:02 10° NNE 22:34:04 38° E 22:34:19 37° ESE
Cosmos 2218 Rocket 3.9 22:30:09 10° N 22:36:21 77° E 22:39:18 33° SSE
Cosmos 1066 Rocket 4.1 22:34:16 27° S 22:37:24 85° E 22:43:04 10° N
Cosmos 1420 Rocket 4.2 22:34:14 10° NNW 22:39:26 58° ENE 22:41:10 39° SE
Cosmos 1809 Rocket 4.4 22:35:27 10° N 22:41:34 79° E 22:44:16 35° SSE
USA 245 4.4 22:42:20 20° W 22:42:20 20° W 22:44:09 10° NW
Cosmos 1953 4.2 22:40:21 10° NNE 22:43:10 18° ENE 22:43:18 18° ENE
Cosmos 1048 Rocket 4.3 22:42:28 41° SE 22:43:21 45° ESE 22:48:15 10° NNE
COSMOS 2487 3.7 22:43:44 19° SW 22:45:54 40° WNW 22:49:18 10° N
CZ-3A R/B 2.9 22:48:10 10° W 22:48:50 13° W 22:48:50 13° W
CARTOSAT-1 3.5 22:50:14 57° SSE 22:51:04 80° ENE 22:55:24 10° N
Cosmos 1452 Rocket 3.6 22:48:03 10° NNW 22:53:19 71° WSW 22:55:04 42° S
Landsat 7 3.9 22:52:27 42° S 22:53:58 68° WSW 22:58:43 10° NNW
SPOT 1/Viking Rocket 4.2 22:51:40 28° SSW 22:54:04 47° W 22:59:03 10° NNW
Cosmos 1980 Rocket 2.5 22:49:00 10° NNW 22:54:34 54° ENE 22:56:23 38° ESE
Cosmos 2058 Rocket 4.3 22:50:53 10° NNW 22:54:56 36° W 22:56:51 24° SW
Meteor 1-21 4.3 22:56:53 44° SSE 22:58:32 63° E 23:04:12 10° NNE
Cosmos 1766 3.1 22:55:38 10° N 22:59:32 72° E 22:59:35 72° E
Meteor 2-16 Rocket 4.4 22:54:51 10° N 23:01:01 72° E 23:03:03 44° SSE
Tiangong 2 2.1 22:58:41 10° W 23:00:58 42° WNW 23:00:58 42° WNW
Cosmos 1544 3.9 22:58:29 10° N 23:01:29 39° ENE 23:01:29 39° ENE
Nadezhda 3 Rocket 4.3 23:02:08 41° SE 23:03:57 54° E 23:10:07 10° NNE
Cosmos 2322 Rocket 3.7 23:00:04 10° N 23:04:47 26° NE 23:07:11 20° E
USA 267 3.7 22:59:45 10° ENE 23:05:41 37° SE 23:05:41 37° SE
Lacrosse 5 rocket 3.9 23:02:23 10° NNW 23:05:47 20° NNE 23:09:10 10° ENE
Terra 1.9 23:07:56 51° SSW 23:08:59 69° WSW 23:13:45 10° NNW
H-2A R/B 2.4 23:15:12 51° SW 23:15:55 59° WSW 23:20:25 10° NNW
Cosmos 1812 Rocket 3.6 23:13:35 10° NNW 23:18:03 71° W 23:18:32 64° SW
IGS 5A 3.8 23:18:14 51° WSW 23:18:35 52° W 23:22:40 10° NNW
SeaSat 1 4.2 23:17:12 18° E 23:19:08 23° NE 23:22:57 10° N
Cosmos 1821 Rocket 4.4 23:13:40 10° N 23:19:45 49° ENE 23:21:21 40° ESE
Cosmos 1758 3.7 23:20:51 10° N 23:24:21 54° NE 23:24:21 54° NE
Spot 4 3.7 23:26:55 72° S 23:27:26 86° WSW 23:32:16 10° NNW
Lacrosse 5 3.7 23:30:33 18° E 23:30:33 18° E 23:32:08 10° ENE
Cosmos 2082 Rocket 3.4 23:24:14 10° SW 23:29:31 39° WNW 23:34:48 10° N
CZ-2C R/B 3.9 23:25:40 10° NE 23:30:19 28° E 23:30:19 28° E
ATLAS CENTAUR R/B 3.0 23:27:32 10° N 23:30:28 22° NE 23:30:40 22° NE
Cosmos 1805 3.5 23:27:26 10° N 23:30:53 67° NNW 23:30:53 67° NNW
USA 229 DEB 3.7 23:29:41 10° NW 23:36:52 83° WSW 23:39:05 49° SSE
USA 229 3.7 23:29:47 10° NW 23:36:59 84° SW 23:39:12 49° SSE
ISS -0.6 23:34:57 10° NW 23:37:02 15° N 23:39:06 10° NNE
Cosmos 972 Rocket 4.3 23:34:01 10° N 23:39:06 51° ENE 23:39:35 49° E
Cosmos 1953 Rocket 3.8 23:40:02 63° ENE 23:40:02 63° ENE 23:44:05 10° NNE
Cosmos 1825 Rocket 3.5 23:41:25 79° NNW 23:41:25 79° NNW 23:45:33 10° N
H-2A R/B 3.9 23:40:27 15° WSW 23:42:16 18° W 23:45:42 10° NW
ALOS 2 3.8 23:46:15 32° ENE 23:46:15 32° ENE 23:50:07 10° N
Cosmos 1535 Rocket 4.4 23:41:04 10° N 23:47:12 75° E 23:48:20 59° SE
Cosmos 1697 Rocket 3.8 23:45:09 10° NW 23:50:02 31° WSW 23:50:57 30° WSW
CZ-4C R/B 4.3 23:52:05 38° NW 23:52:05 38° NW 23:54:38 10° NNW
Cosmos 2360 4.2 23:45:28 10° NNW 23:51:07 65° WSW 23:51:48 59° SSW
